Wind_Speed
117 112 111 106 106 103 109 108 110 100 108 106 108 113 116 117 112 113 114 117 120 121 119 119 123 124 124 125 125 121 115 110 98 86 75 67 61 55 50 48 44 40 39 36
122 106 116 117 101 99 110 111 119 113 108 109 111 117 123 122 125 121 117 120 126 127 124 121 129 127 125 128 122 116 110 96 87 77 67 62 54 50 46 42 38 36 38 35
136 135 126 124 115 113 106 110 116 117 116 118 120 121 124 124 123 122 122 126 128 129 132 133 130 129 128 122 116 102 95 86 77 68 62 56 48 45 41 38 38 37 36 36
147 146 148 135 125 125 126 123 127 134 134 135 134 132 133 132 128 127 126 127 131 133 133 132 131 124 121 109 98 91 83 74 66 61 55 49 43 39 38 38 37 36 34 34
138 144 146 144 139 143 142 143 143 144 144 140 136 139 135 133 129 125 124 127 131 131 130 130 124 116 105 96 82 77 70 64 59 54 48 44 40 39 37 37 36 35 35 33
116 122 124 121 126 128 129 125 125 124 122 121 119 123 122 124 127 127 125 125 125 122 119 116 107 100 90 75 72 66 62 57 52 47 44 41 39 38 37 37 38 38 38 37
103 107 107 106 110 113 115 111 114 112 110 108 106 107 107 110 112 113 111 108 104 101 99 95 91 82 72 68 63 58 55 48 44 42 40 38 39 39 40 40 41 41 41 41
93 95 95 96 100 101 103 99 96 98 98 98 99 98 97 97 96 95 92 90 89 87 85 83 77 69 62 58 54 51 45 41 40 38 38 39 40 41 40 40 40 40 40 41
83 86 81 83 85 86 86 86 84 82 83 84 85 84 83 83 83 83 82 81 80 77 74 70 63 57 53 51 47 41 39 37 36 36 38 39 37 35 34 33 34 34 35 35
73 71 71 71 73 74 74 76 73 72 72 73 73 73 73 73 73 74 74 71 69 67 64 58 55 50 47 43 38 37 35 34 34 36 36 35 33 32 31 30 30 30 31 33
60 64 64 63 62 61 63 62 61 62 64 63 62 64 64 64 64 65 64 61 59 59 55 52 48 44 40 36 34 34 33 32 33 35 32 32 31 29 29 28 26 27 27 29
51 56 52 53 53 54 53 52 54 57 56 56 54 56 57 56 56 56 54 52 54 51 49 45 43 36 34 32 31 30 31 31 31 30 29 29 28 27 26 26 26 26 27 28
42 47 47 44 45 47 46 45 48 50 48 49 51 52 51 48 48 48 47 47 46 45 41 40 34 32 32 30 29 29 29 30 28 28 27 27 26 26 27 27 26 27 29 30
39 42 42 41 41 40 43 43 43 44 43 42 44 45 43 43 42 41 41 40 38 37 35 33 31 31 30 29 28 28 29 29 28 27 26 26 26 27 28 28 28 30 32 34
35 36 34 36 37 37 36 36 36 38 38 37 38 36 36 34 33 32 32 31 31 30 29 29 30 30 29 29 29 29 29 29 27 26 26 26 27 28 29 30 30 32 35 37
28 32 35 33 32 32 32 33 35 32 33 32 31 30 28 27 26 26 26 26 27 27 28 29 30 30 30 31 31 30 30 29 29 28 28 29 29 29 30 33 35 36 38 40
33 29 27 28 29 28 27 28 28 27 27 26 25 25 25 23 24 24 23 24 25 27 29 30 30 31 33 33 33 33 33 32 32 33 33 34 34 34 35 37 39 40 42 43
23 24 23 23 23 22 21 22 22 21 21 23 23 23 23 23 23 23 24 26 28 30 31 31 32 34 35 36 36 37 37 37 37 38 39 40 41 42 42 43 45 45 46 49
19 19 18 17 17 17 17 17 17 18 20 20 21 22 23 23 24 25 26 28 30 30 31 33 34 36 37 38 38 39 40 41 42 42 43 45 46 48 48 49 49 51 54 54
16 13 12 12 13 12 13 14 16 17 18 19 21 23 24 25 25 27 29 31 31 32 34 35 37 39 40 42 43 44 45 46 46 48 49 50 51 52 53 53 55 56 58 59
12 11 11 11 11 11 12 14 16 17 19 21 23 24 26 27 29 31 33 33 33 35 37 39 41 43 45 47 47 48 49 50 51 53 53 54 55 56 56 58 59 61 62 63
9 9 9 10 11 13 15 16 19 21 23 25 27 28 30 31 32 34 36 37 37 38 40 43 45 46 49 51 51 52 53 53 54 55 56 56 58 60 60 62 63 64 63 64
10 10 11 12 13 15 17 19 21 23 26 28 30 30 32 33 34 36 37 38 39 40 43 45 45 47 50 51 52 53 54 55 56 57 58 60 60 61 63 64 64 64 64 63
11 12 13 14 15 16 19 22 24 27 29 31 33 34 35 36 37 38 39 39 40 43 45 46 47 49 50 52 53 54 56 57 58 58 59 60 62 63 62 63 63 62 61 61
13 14 15 16 18 20 21 23 25 28 30 31 32 33 33 33 35 36 38 39 41 42 44 46 48 49 50 52 53 54 55 56 57 58 59 59 59 59 59 59 59 59 59 59
16 16 17 19 20 21 23 25 27 29 30 31 32 32 32 33 33 34 35 36 38 40 41 43 44 45 46 47 49 51 52 53 54 54 55 55 56 56 56 56 57 58 57 57
18 19 19 21 23 25 27 28 29 30 31 31 32 32 32 31 32 34 34 34 35 37 38 39 40 41 42 44 46 46 47 49 50 51 52 52 53 53 54 54 54 54 54 55
Wind_Direction
269 270 270 268 266 267 267 268 269 273 273 274 277 280 283 285 288 288 290 291 291 292 294 293 296 298 300 302 303 304 304 305 304 303 302 299 298 294 289 286 283 278 274 266
264 261 260 265 261 265 266 264 265 270 269 269 272 277 279 279 281 284 288 289 289 292 293 293 294 297 300 300 303 303 304 302 301 301 300 299 294 290 288 286 281 274 270 265
258 261 257 259 262 263 264 263 267 267 271 270 274 276 277 277 280 283 283 284 287 289 290 292 295 297 297 299 300 300 300 300 299 299 298 293 290 289 287 283 280 275 268 263
258 260 260 258 257 259 261 261 263 266 269 273 272 272 276 275 276 279 281 282 284 286 289 290 292 295 298 297 299 299 298 297 297 297 292 289 289 286 282 279 278 276 271 264
256 258 261 262 261 256 257 259 263 266 269 271 270 272 272 274 276 277 279 279 281 285 286 288 292 293 295 296 297 295 295 295 294 290 287 287 285 281 280 279 278 277 275 271
255 257 259 261 263 265 265 265 266 266 267 269 270 271 272 272 275 277 278 280 281 285 286 287 289 291 291 295 293 292 294 292 288 285 285 283 281 281 279 278 277 276 275 273
255 257 259 262 262 264 265 266 266 268 269 270 270 270 271 273 274 276 279 282 281 282 283 285 287 290 293 290 291 292 288 285 283 282 281 282 283 281 279 278 277 275 274 271
253 255 257 258 260 262 264 266 265 266 268 268 269 271 273 274 275 276 277 278 279 281 283 284 286 288 287 288 288 284 281 280 279 280 281 282 282 282 281 278 275 273 271 268
252 254 254 255 258 261 264 266 267 267 268 269 271 272 272 273 273 274 276 277 278 281 282 283 284 283 284 282 278 277 277 276 277 279 282 284 284 283 282 279 275 272 270 267
253 256 256 256 259 260 262 263 264 266 267 269 270 272 272 272 273 273 274 276 278 278 279 280 279 280 276 273 271 271 270 272 277 281 283 283 283 282 280 276 273 271 267 264
253 254 258 258 260 260 262 264 265 263 265 266 267 269 271 272 271 271 274 276 276 276 278 276 275 270 267 265 265 265 267 275 281 282 281 280 280 280 279 277 273 271 269 265
259 258 257 257 259 258 260 261 263 262 265 269 271 269 268 269 271 272 272 272 271 272 272 268 264 262 259 258 259 262 272 279 282 282 280 278 279 279 280 279 279 277 275 273
257 258 259 258 258 259 261 260 262 264 264 268 268 270 270 271 271 270 268 267 266 264 262 260 256 251 250 251 254 265 275 283 284 284 281 280 280 280 283 279 278 280 279 276
255 256 258 260 261 260 261 264 264 267 268 266 268 269 271 269 268 265 264 263 261 257 252 249 246 244 245 246 254 265 275 284 286 284 281 281 282 285 285 287 286 284 283 284
254 260 263 260 259 262 263 265 266 267 268 267 266 266 264 265 265 264 262 258 252 246 244 241 241 242 243 247 254 263 274 281 284 286 286 285 283 281 281 282 283 283 285 286
256 254 252 255 258 262 261 261 260 262 261 261 262 263 264 262 259 256 251 247 245 243 239 238 241 241 243 247 254 262 270 278 281 283 286 284 283 284 285 286 286 286 286 286
244 247 249 250 252 254 254 253 256 254 255 258 259 258 254 250 248 246 246 247 245 243 243 244 245 244 245 251 256 262 269 274 280 282 283 285 285 285 284 285 286 286 288 289
238 242 246 247 248 249 252 254 252 251 252 251 250 248 249 248 249 249 247 247 248 249 250 249 248 249 251 254 259 264 268 273 277 280 282 284 285 286 287 287 288 290 290 288
236 238 238 239 244 246 246 247 247 248 249 248 250 251 251 251 251 252 254 256 257 257 254 252 252 254 258 261 265 268 271 273 276 280 282 283 284 286 287 288 289 289 289 291
222 220 226 233 237 238 241 244 246 248 250 253 255 258 260 262 260 261 261 260 258 257 257 256 258 261 264 266 268 270 273 276 278 281 283 284 285 287 288 288 288 290 292 292
205 208 217 227 235 243 251 257 262 265 266 267 266 267 266 265 265 265 265 265 264 262 260 260 260 262 264 267 269 272 274 276 277 280 282 283 285 286 288 289 290 292 293 293
204 215 231 247 259 266 270 273 274 275 275 274 273 272 271 271 269 268 267 268 267 266 265 264 263 264 266 267 270 272 274 276 278 280 282 285 286 287 289 290 292 293 293 294
229 244 252 260 268 274 277 279 281 282 282 282 281 280 279 277 275 273 272 272 271 269 268 267 268 268 269 271 272 274 275 277 279 280 282 284 286 288 289 291 292 293 294 296
247 257 263 267 270 273 276 278 280 283 283 284 283 283 282 281 278 276 275 273 271 270 270 271 270 270 271 272 273 275 276 277 279 282 285 285 287 288 289 291 293 294 295 295
261 264 267 268 270 273 278 282 285 287 289 290 289 287 284 282 279 276 274 273 273 273 272 271 271 271 272 272 274 276 278 279 281 282 284 285 287 289 290 291 293 294 295 296
268 268 270 274 279 283 288 291 294 295 295 294 292 291 289 286 284 280 278 277 277 274 272 271 271 272 273 274 275 276 278 279 281 283 285 287 288 290 291 293 293 294 295 297
271 272 275 280 284 289 292 295 297 299 299 298 297 295 292 289 287 285 283 280 280 279 276 274 273 274 275 276 277 278 280 281 283 285 287 288 290 292 293 294 295 295 296 297
Height
10398 10404 10404 10416 10425 10423 10428 10428 10430 10447 10441 10447 10436 10422 10424 10421 10421 10416 10414 10415 10407 10405 10402 10395 10384 10378 10373 10366 10359 10348 10335 10326 10314 10306 10299 10291 10285 10282 10280 10277 10275 10274 10274 10276
10359 10380 10381 10384 10392 10405 10402 10408 10405 10411 10417 10417 10414 10413 10402 10406 10396 10403 10405 10391 10378 10374 10371 10367 10358 10358 10351 10343 10336 10325 10316 10305 10296 10288 10281 10276 10272 10269 10267 10264 10262 10263 10263 10265
10338 10338 10355 10358 10378 10377 10383 10384 10379 10373 10386 10391 10393 10392 10386 10382 10384 10383 10381 10372 10364 10357 10347 10345 10339 10334 10331 10324 10314 10306 10293 10286 10277 10271 10267 10263 10259 10257 10254 10252 10251 10252 10253 10255
10311 10306 10307 10340 10357 10354 10351 10355 10353 10349 10359 10364 10365 10363 10357 10354 10360 10361 10358 10348 10338 10332 10327 10324 10319 10311 10308 10300 10293 10284 10275 10268 10262 10257 10254 10250 10248 10245 10243 10242 10241 10241 10241 10243
10279 10284 10287 10301 10322 10318 10316 10323 10338 10332 10331 10332 10336 10329 10332 10332 10333 10335 10333 10324 10315 10313 10307 10300 10296 10290 10284 10278 10274 10264 10257 10253 10247 10244 10242 10238 10236 10234 10233 10231 10230 10230 10230 10231
10258 10257 10263 10282 10275 10280 10281 10295 10297 10300 10304 10308 10309 10305 10304 10304 10302 10302 10301 10298 10293 10289 10283 10278 10274 10270 10265 10261 10253 10248 10242 10238 10235 10233 10230 10227 10225 10223 10222 10221 10219 10219 10219 10220
10230 10231 10243 10255 10254 10252 10252 10272 10265 10272 10277 10279 10277 10277 10280 10279 10278 10276 10275 10272 10268 10265 10261 10258 10253 10250 10248 10242 10236 10232 10229 10226 10224 10222 10219 10216 10213 10212 10210 10209 10209 10209 10209 10209
10208 10212 10222 10226 10225 10229 10230 10240 10249 10250 10251 10251 10251 10254 10256 10256 10254 10251 10249 10248 10246 10243 10240 10236 10235 10233 10230 10224 10221 10219 10217 10216 10214 10211 10208 10205 10203 10201 10200 10199 10197 10197 10197 10197
10183 10191 10205 10206 10207 10210 10214 10216 10222 10229 10228 10227 10228 10230 10231 10231 10231 10230 10227 10224 10223 10222 10220 10218 10216 10214 10212 10210 10209 10208 10206 10205 10203 10200 10198 10195 10192 10191 10189 10188 10187 10186 10186 10186
10168 10175 10182 10187 10189 10192 10196 10195 10201 10204 10205 10205 10206 10208 10208 10208 10207 10206 10205 10205 10206 10204 10202 10201 10199 10198 10198 10197 10197 10196 10196 10195 10193 10190 10188 10184 10183 10181 10179 10178 10177 10176 10176 10176
10159 10157 10162 10167 10172 10175 10174 10178 10183 10184 10182 10184 10188 10189 10188 10188 10188 10187 10186 10188 10187 10185 10185 10184 10184 10185 10185 10185 10186 10187 10186 10185 10183 10180 10179 10176 10174 10173 10171 10169 10168 10166 10166 10166
10140 10143 10148 10149 10154 10157 10160 10163 10164 10165 10167 10169 10171 10169 10169 10170 10170 10170 10171 10170 10169 10169 10170 10170 10170 10173 10174 10176 10177 10177 10176 10176 10174 10171 10169 10168 10166 10164 10162 10161 10159 10158 10157 10156
10125 10126 10130 10135 10139 10141 10145 10149 10149 10149 10152 10152 10153 10153 10153 10154 10154 10154 10154 10154 10154 10155 10157 10158 10161 10163 10165 10167 10168 10168 10167 10166 10165 10162 10160 10159 10158 10156 10154 10153 10151 10150 10148 10147
10111 10113 10118 10122 10124 10128 10130 10133 10136 10135 10136 10138 10138 10138 10140 10140 10140 10139 10140 10141 10143 10145 10146 10149 10152 10154 10156 10158 10159 10160 10159 10158 10156 10154 10152 10151 10149 10147 10146 10145 10144 10141 10140 10138
10100 10103 10108 10110 10112 10115 10119 10121 10123 10122 10123 10125 10125 10127 10128 10128 10128 10128 10129 10131 10133 10135 10138 10141 10144 10146 10148 10150 10151 10151 10151 10149 10148 10146 10144 10142 10141 10140 10138 10136 10135 10134 10130 10128
10090 10095 10098 10101 10103 10106 10108 10110 10110 10114 10114 10114 10116 10117 10118 10119 10120 10121 10122 10124 10126 10128 10130 10133 10135 10138 10139 10140 10142 10142 10142 10141 10139 10138 10136 10135 10133 10131 10129 10126 10124 10122 10120 10117
10082 10087 10089 10092 10094 10097 10100 10100 10103 10105 10105 10106 10108 10109 10110 10111 10112 10113 10115 10117 10119 10121 10123 10125 10127 10128 10130 10131 10132 10132 10131 10131 10130 10128 10127 10125 10123 10121 10119 10116 10113 10111 10109 10105
10076 10078 10082 10085 10087 10089 10091 10094 10096 10097 10099 10100 10101 10102 10103 10104 10106 10107 10109 10110 10112 10113 10115 10116 10118 10119 10120 10121 10121 10121 10120 10120 10119 10118 10116 10114 10112 10109 10107 10104 10100 10097 10095 10090
10071 10074 10076 10078 10081 10083 10085 10088 10090 10091 10093 10094 10096 10096 10097 10099 10100 10101 10102 10103 10104 10105 10106 10107 10108 10109 10110 10110 10111 10110 10109 10108 10107 10105 10103 10101 10098 10096 10093 10090 10087 10083 10077 10074
10067 10070 10072 10075 10077 10080 10082 10083 10085 10087 10088 10089 10090 10090 10091 10091 10092 10092 10093 10093 10094 10096 10096 10098 10098 10099 10099 10098 10098 10098 10096 10094 10094 10091 10090 10086 10084 10081 10078 10075 10070 10066 10062 10057
10064 10067 10069 10072 10074 10077 10078 10080 10081 10082 10082 10082 10082 10082 10082 10082 10083 10082 10082 10082 10084 10085 10086 10085 10086 10086 10086 10084 10084 10083 10082 10081 10079 10077 10074 10071 10068 10065 10061 10057 10053 10048 10043 10038
10062 10065 10068 10070 10072 10073 10073 10074 10074 10074 10074 10074 10074 10073 10073 10072 10072 10072 10071 10071 10072 10073 10072 10072 10072 10073 10071 10069 10070 10068 10067 10065 10063 10061 10058 10055 10051 10047 10044 10039 10034 10030 10025 10019
10061 10063 10065 10066 10067 10068 10068 10068 10067 10067 10066 10065 10064 10063 10062 10062 10061 10060 10059 10060 10060 10060 10058 10057 10058 10058 10055 10055 10054 10053 10051 10049 10047 10045 10042 10039 10035 10031 10026 10022 10017 10012 10006 10001
10059 10060 10061 10062 10062 10062 10062 10062 10061 10059 10058 10056 10054 10053 10051 10050 10048 10047 10047 10047 10046 10045 10043 10044 10043 10042 10041 10040 10039 10037 10035 10033 10030 10028 10026 10022 10018 10013 10009 10004 9999 9994 9989 9984
10055 10056 10056 10057 10057 10057 10056 10055 10053 10051 10049 10046 10044 10042 10040 10038 10036 10035 10034 10032 10031 10031 10030 10028 10027 10026 10025 10024 10022 10021 10019 10017 10014 10011 10007 10004 10001 9996 9992 9988 9982 9977 9972 9966
10051 10051 10052 10052 10051 10051 10049 10047 10045 10043 10040 10037 10034 10031 10029 10027 10024 10022 10021 10020 10018 10016 10015 10014 10012 10011 10010 10009 10007 10005 10003 10000 9997 9995 9991 9988 9984 9980 9975 9971 9966 9960 9955 9949
10046 10047 10047 10046 10045 10043 10042 10040 10037 10034 10031 10028 10024 10021 10018 10016 10013 10010 10008 10007 10005 10003 10002 10000 9998 9997 9996 9994 9992 9990 9987 9985 9982 9979 9976 9972 9968 9964 9959 9953 9948 9943 9939 9933